Location: Göttingen
(51.5413°N, 9.9158°E)
Time: 01:03:53
(UTC+02:00)

PicSat - Visible Passes

Search period start: 28 June 2022 00:00
Search period end: 08 July 2022 00:00
Orbit: 453 x 459 km, 97.4° (Epoch: 27 June)

Date Brightness Start Highest point End Pass type
(mag) Time Alt. Az. Time Alt. Az. Time Alt. Az.
28 Jun ? 23:17:41 15° SSE 23:20:22 65° ENE 23:23:47 10° N visible
29 Jun ? 00:52:31 10° WSW 00:53:39 11° W 00:54:47 10° WNW visible
29 Jun ? 22:44:18 10° SE 22:47:16 28° ENE 22:50:15 10° N visible
30 Jun ? 00:17:54 14° SW 00:20:08 25° W 00:23:02 10° NW visible
30 Jun ? 23:44:19 18° S 23:46:43 60° WSW 23:50:09 10° NNW visible
01 Jul ? 23:10:42 15° SSE 23:13:26 53° ENE 23:16:49 10° N visible
02 Jul ? 00:44:51 10° WSW 00:46:38 13° W 00:48:25 10° WNW visible
02 Jul ? 22:37:28 10° ESE 22:40:16 24° ENE 22:43:05 10° N visible
03 Jul ? 00:10:49 15° SSW 00:13:02 29° W 00:16:07 10° NNW visible
03 Jul ? 23:37:08 18° S 23:39:33 74° WSW 23:43:00 10° NNW visible
04 Jul ? 23:03:25 13° SE 23:06:11 43° ENE 23:09:29 10° N visible
05 Jul ? 00:37:10 10° SW 00:39:17 16° W 00:41:29 10° NW visible
05 Jul ? 22:30:21 10° ESE 22:32:56 20° ENE 22:35:32 10° NNE visible
06 Jul ? 00:03:24 17° SSW 00:05:36 36° W 00:08:49 10° NNW visible
06 Jul ? 23:29:37 18° SSE 23:32:03 89° ENE 23:35:31 10° NNW visible
07 Jul ? 22:55:48 12° SE 22:58:37 36° ENE 23:01:48 10° N visible
